Zurück zum Katalog

STARLINK-2763

AktivKommunikationVLEO
NORAD 48670·PAYLOAD·🇺🇸 United States

Gestartet May 26, 2021 von Cape Canaveral Space Force Station

Loading…

Nächste Überflüge (nächste 24 Stunden)

TLE

AktuellSource: CelesTrak SupGP

Epoche: Sep 14, 2026, 20:38 UTC

1 48670C 21044AJ  26257.86020833 -.00013181  00000+0 -42387-3 0  2577
2 48670  53.1593 303.8512 0001137  90.1650 236.1770 15.31707699    13

Verfolge STARLINK-2763 in Echtzeit mit AllMySat

Download on the App Store